Regional Weather Roundup
Issued by NWS

Home | Current Version | Previous Version | Graphics & Text | Print | Product List | Glossary On
Versions: 1 2 3 4 5 6 7 8 9 10 11 12 13 14 15 16 17 18 19 20 21 22 23 24 25 26 27 28 29 30 31 32 33 34 35 36 37 38 39 40 41 42 43 44 45 46 47 48 49 50
000
ASUS43 KDMX 291307
RWRIA

WEATHER ROUNDUP FOR IOWA
NATIONAL WEATHER SERVICE DES MOINES IA
800 AM CDT SUN MAR 29 2015

NOTE: "FAIR" INDICATES FEW OR NO CLOUDS BELOW 12,000 FEET WITH NO
SIGNIFICANT WEATHER AND/OR OBSTRUCTIONS TO VISIBILITY.

* - THESE STATIONS ARE NOT NWS STATIONS...THUS NOT UNDER NWS
QUALITY CONTROL.  THEY ALSO DO NOT REPORT WEATHER SUCH
AS PRECIPITATION OR FOG.

IAZ001>003-012>014-020>022-031>034-043>046-291400-
   NORTHWEST IOWA

CITY           SKY/WX    TMP DP  RH WIND       PRES   REMARKS
CARROLL *      CLEAR     39  36  87 SW23G31   29.82R WCI  29
CHEROKEE *     PTCLDY    39  36  87 SW10      29.78R WCI  32
DENISON *      CLEAR     39  37  93 SW14      29.83R WCI  31
LE MARS *      CLEAR     39  36  87 S10       29.80R WCI  32
ORANGE CITY *  CLEAR     41  37  87 SW8       29.77R
SHELDON *      CLEAR     43  41  93 W13       29.74R
SIOUX CITY     MOCLDY    42  34  73 SW8       29.83R
SPENCER        CLEAR     42  36  79 SW18      29.74R
STORM LAKE *   CLEAR     39  36  87 W16G23    29.78R WCI  30
$$

IAZ055>058-069>071-079>083-090>094-291400-
   SOUTHWEST IOWA

CITY           SKY/WX    TMP DP  RH WIND       PRES   REMARKS
ATLANTIC *     CLEAR     41  37  87 S14       29.88S
AUDUBON *      CLEAR     39  36  87 S13G24    29.86R WCI  32
CLARINDA *     CLEAR     41  37  87 S9        29.95S
COUNCIL BLFS * CLEAR     43  37  81 SW14      29.89R
CRESTON *      CLEAR     39  37  93 SW16G22   29.91R WCI  30
HARLAN  *      CLEAR     39  39 100 SW9       29.90R WCI  33
LAMONI         CLOUDY    38  34  85 S16       29.92S WCI  29
RED OAK *      CLEAR     41  37  87 S9        29.91S
SHENANDOAH *   CLEAR     41  37  87 S9        29.94R
$$

IAZ047>049-059>061-072>074-084-291400-
   CENTRAL IOWA

CITY           SKY/WX    TMP DP  RH WIND       PRES   REMARKS
AMES           MOCLDY    38  34  85 S13       29.85F WCI  30
ANKENY *       PTCLDY    39  36  87 SW15G22   29.88S WCI  31
CHARITON *     MOSUNNY   37  36  93 S14G22    29.90S WCI  29
DES MOINES     CLOUDY    40  35  83 SW15      29.89R WCI  32
GRINNELL*      CLOUDY    36  32  87 S21G28    29.87R WCI  24
KNOXVILLE *    PTSUNNY   37  34  87 SW17G25   29.88F WCI  28
MARSHALLTOWN   PTSUNNY   34  31  88 S17       29.85R WCI  23
PELLA *        PTSUNNY   37  36  93 S13G23    29.90S WCI  29
PERRY *          N/A     41  37  87 S14G20    29.85S
$$

IAZ004>006-015-016-023>025-035-036-291400-
   NORTH CENTRAL IOWA

CITY           SKY/WX    TMP DP  RH WIND       PRES   REMARKS
ALGONA *       CLEAR     39  37  93 SW23      29.74S WCI  29
CLARION *      CLEAR     36  36 100 SW18G26   29.77F WCI  25
ESTHERVILLE    CLEAR     40  35  83 SW21      29.69S WCI  30
FORT DODGE *   PTCLDY    39  34  81 SW18      29.79F WCI  30
MASON CITY     MOCLDY    34  30  85 S15       29.77F WCI  24
FOREST CITY *  PTCLDY    32  32 100 S14       29.74F WCI  22
IOWA FALLS *     N/A     34  32  93 S17       29.81F WCI  23
$$

IAZ007>011-017>019-026>030-037>042-050>054-066-291400-
   NORTHEAST IOWA

CITY           SKY/WX    TMP DP  RH WIND       PRES   REMARKS
CEDAR RAPIDS   CLOUDY    32  28  85 S23G32    29.86F WCI  19
CHARLES CITY * PTSUNNY   34  32  93 S24G32    29.79F WCI  21
CLINTON *      MOSUNNY   34  21  60 S21       30.02F WCI  22
DECORAH *      CLOUDY    32  30  93 S14G29    29.79R WCI  22
DUBUQUE        FRZ RAIN  32  26  78 S28G38    29.89F WCI  18
MONTICELLO *   LGT RAIN  32  30  93 S20G28    29.90F WCI  20
OELWEIN *      CLOUDY    32  30  93 S24G32    29.86R WCI  19
WATERLOO       CLOUDY    33  31  92 S18G26    29.85R WCI  22
$$

IAZ064-065-067-068-078-291400-
   EAST CENTRAL IOWA

CITY           SKY/WX    TMP DP  RH WIND       PRES   REMARKS
DAVENPORT      PTSUNNY   35  21  56 S23G30    30.00S WCI  23
IOWA CITY      LGT RAIN  33  29  85 S18       29.93F WCI  22
MT. PLEASANT * LGT RAIN  34  28  80 S16       30.02R WCI  23
MUSCATINE *    MIX PCPN  36  27  69 S17       29.99S WCI  25
QUAD CITIES    MOSUNNY   35  21  56 S20G29    29.98F WCI  24
$$

IAZ062-063-075>077-085>089-095>099-291400-
   SOUTHEAST IOWA

CITY           SKY/WX    TMP DP  RH WIND       PRES   REMARKS
BURLINGTON     PTSUNNY   36  25  64 S21G30    30.03F WCI  25
FAIRFIELD *    MIX PCPN  34  30  86 S20G28    29.93F WCI  22
FORT MADISON * MOSUNNY   34  27  75 S15G26    30.01F WCI  24
KEOKUK *       PTSUNNY   37  27  65 S16       30.01F WCI  28
OSKALOOSA *    CLOUDY    34  32  93 S20G25    29.91F WCI  22
CENTERVILLE *  PTSUNNY   37  34  87 S10G17    29.95F WCI  30
OTTUMWA        CLOUDY    35  31  85 S21G29    29.90F WCI  24
WASHINGTON *   LGT SNOW  34  34 100 S21G29    29.93F WCI  22
$$

ABBREVIATIONS USED IN REMARKS
   TC - TEMPERATURES IN CELSIUS
  WCI - WIND CHILL INDEX
   HX - HEAT INDEX
  VSB - VISIBILITY
$$



USA.gov is the U.S. government's official web portal to all federal, state and local government web resources and services.